Starlink 32448

operational
NORAD ID: 62206 Int'l Des: 2024-229 Owner: SPXS Country: US Constellation: starlink
LEOCIRCULAR

关于 Starlink 32448

正在加载描述...

实时位置

正在加载3D地球...

即将过境

高度历史

Altitude vs Time

uPlot chart will show altitude changes over time

两行轨道根数

1 62206U 24229Q 25302.97214679 .00041613 00000-0 15096-2 0 9990
2 62206 43.0027 288.6143 0005783 287.9222 72.0999 15.27646293 50579
Epoch: Oct 29, 2025 • Age: 20 hours

当前状态

高度 481.6 km
速度 7.63 km/s
星下点 15.01°N, 36.38°W
发射日期 Dec 4, 2024
运行时间 0.9 years
类型 internet

技术详情

分类 Payload
质量 730.00 kg
干质量 700.00 kg
总质量 730.00 kg
长度 0.30 m
直径 4.10 m
跨度 29.00 m
形状 Box + pan
制造商 SPXS
平台类型 Starlink V2M
阶段状态 In Orbit
所有者/国家 SPXS/US

大型星座

Loading constellations...